Time,TemperatureF,DewpointF,PressureIn,WindDirection,WindDirectionDegrees,WindSpeedMPH,WindSpeedGustMPH,Humidity,HourlyPrecipIn,Conditions,Clouds,dailyrainin,SoftwareType,DateUTC
2013-03-31 00:03:00,52.0,-99.9,30.07,SSE,162,0.0,-999.0,54,-99.99,,,-99.99,,2013-03-31 04:03:00,
2013-03-31 00:13:00,52.0,36.0,30.07,SSE,162,0.0,-999.0,54,-99.99,,,-99.99,,2013-03-31 04:13:00,
2013-03-31 00:23:00,52.0,36.0,30.07,SSE,162,0.0,-999.0,55,-99.99,,,-99.99,,2013-03-31 04:23:00,
2013-03-31 00:33:00,52.0,36.0,30.07,SSE,162,0.0,-999.0,55,-99.99,,,-99.99,,2013-03-31 04:33:00,
2013-03-31 00:42:00,52.0,36.0,30.07,SSE,162,0.0,-999.0,55,-99.99,,,-99.99,,2013-03-31 04:42:00,
2013-03-31 00:52:00,52.0,37.0,30.06,SSE,162,0.0,-999.0,56,-99.99,,,-99.99,,2013-03-31 04:52:00,
2013-03-31 01:02:00,51.0,36.0,30.06,SSE,162,0.0,-999.0,56,-99.99,,,-99.99,,2013-03-31 05:02:00,
2013-03-31 01:13:00,51.0,36.0,30.06,SSE,162,0.0,-999.0,56,-99.99,,,-99.99,,2013-03-31 05:13:00,
2013-03-31 01:22:00,51.0,36.0,30.05,SSE,162,0.0,-999.0,57,-99.99,,,-99.99,,2013-03-31 05:22:00,
2013-03-31 01:32:00,51.0,37.0,30.04,SSE,162,0.0,-999.0,58,-99.99,,,-99.99,,2013-03-31 05:32:00,
2013-03-31 01:42:00,51.0,37.0,30.04,SSE,162,0.0,-999.0,58,-99.99,,,-99.99,,2013-03-31 05:42:00,
2013-03-31 01:53:00,50.0,36.0,30.04,SSE,162,0.0,-999.0,59,-99.99,,,-99.99,,2013-03-31 05:53:00,
2013-03-31 02:02:00,50.0,37.0,30.04,SSE,162,0.0,-999.0,60,-99.99,,,-99.99,,2013-03-31 06:02:00,
2013-03-31 02:12:00,50.0,37.0,30.04,SSE,162,0.0,-999.0,60,-99.99,,,-99.99,,2013-03-31 06:12:00,
2013-03-31 02:22:00,50.0,37.0,30.04,SSE,162,0.0,-999.0,61,-99.99,,,-99.99,,2013-03-31 06:22:00,
2013-03-31 02:33:00,50.0,38.0,30.03,SSE,162,0.0,-999.0,62,-99.99,,,-99.99,,2013-03-31 06:33:00,
2013-03-31 02:42:00,50.0,38.0,30.03,SSE,162,0.0,-999.0,62,-99.99,,,-99.99,,2013-03-31 06:42:00,
2013-03-31 02:52:00,50.0,38.0,30.03,SSE,162,0.0,-999.0,63,-99.99,,,-99.99,,2013-03-31 06:52:00,
2013-03-31 03:02:00,50.0,38.0,30.02,SSE,162,0.0,-999.0,63,-99.99,,,-99.99,,2013-03-31 07:02:00,
2013-03-31 03:12:00,50.0,38.0,30.02,SSE,162,0.0,-999.0,63,-99.99,,,-99.99,,2013-03-31 07:12:00,
2013-03-31 03:22:00,50.0,39.0,30.01,SSE,162,0.0,-999.0,65,-99.99,,,-99.99,,2013-03-31 07:22:00,
2013-03-31 03:33:00,49.0,38.0,30.01,SSE,162,0.0,-999.0,66,-99.99,,,-99.99,,2013-03-31 07:33:00,
2013-03-31 03:43:00,49.0,38.0,30.01,SSE,162,0.0,-999.0,66,-99.99,,,-99.99,,2013-03-31 07:43:00,
2013-03-31 03:52:00,49.0,40.0,30.01,SSE,162,0.0,-999.0,70,-99.99,,,-99.99,,2013-03-31 07:52:00,
2013-03-31 04:02:00,49.0,43.0,30.01,SSE,162,0.0,-999.0,81,-99.99,,,-99.99,,2013-03-31 08:02:00,
2013-03-31 04:12:00,49.0,43.0,30.01,SSE,162,0.0,-999.0,81,-99.99,,,-99.99,,2013-03-31 08:12:00,
2013-03-31 04:22:00,47.0,43.0,30.00,SSE,162,0.0,-999.0,86,-99.99,,,-99.99,,2013-03-31 08:22:00,
2013-03-31 04:32:00,46.0,43.0,29.99,SSE,162,0.0,-999.0,89,-99.99,,,-99.99,,2013-03-31 08:32:00,
2013-03-31 04:42:00,46.0,43.0,29.99,SSE,162,0.0,-999.0,89,-99.99,,,-99.99,,2013-03-31 08:42:00,
2013-03-31 04:52:00,46.0,44.0,29.98,SSE,162,0.0,-999.0,91,-99.99,,,-99.99,,2013-03-31 08:52:00,
2013-03-31 05:02:00,46.0,44.0,29.97,SSE,162,0.0,-999.0,92,-99.99,,,-99.99,,2013-03-31 09:02:00,
2013-03-31 05:12:00,46.0,44.0,29.97,SSE,162,0.0,-999.0,92,-99.99,,,-99.99,,2013-03-31 09:12:00,
2013-03-31 05:22:00,46.0,44.0,29.96,SSE,162,0.0,-999.0,93,-99.99,,,-99.99,,2013-03-31 09:22:00,
2013-03-31 05:33:00,46.0,44.0,29.96,SSE,162,0.0,-999.0,94,-99.99,,,-99.99,,2013-03-31 09:33:00,
2013-03-31 05:43:00,46.0,44.0,29.96,SSE,162,0.0,-999.0,94,-99.99,,,-99.99,,2013-03-31 09:43:00,
2013-03-31 05:53:00,46.0,44.0,29.95,SSE,162,0.0,-999.0,94,-99.99,,,-99.99,,2013-03-31 09:53:00,
2013-03-31 06:03:00,46.0,44.0,29.94,SSE,162,0.0,-999.0,94,-99.99,,,-99.99,,2013-03-31 10:03:00,
2013-03-31 06:13:00,46.0,44.0,29.94,SSE,162,0.0,-999.0,94,-99.99,,,-99.99,,2013-03-31 10:13:00,
2013-03-31 06:24:00,45.0,43.0,29.93,SSE,162,0.0,-999.0,94,-99.99,,,-99.99,,2013-03-31 10:24:00,
2013-03-31 06:33:00,45.0,44.0,29.93,SSE,162,0.0,-999.0,95,-99.99,,,-99.99,,2013-03-31 10:33:00,
2013-03-31 06:42:00,45.0,44.0,29.93,SSE,162,0.0,-999.0,95,-99.99,,,-99.99,,2013-03-31 10:42:00,
2013-03-31 06:53:00,45.0,44.0,29.93,SSE,163,0.0,-999.0,95,-99.99,,,-99.99,,2013-03-31 10:53:00,
2013-03-31 07:03:00,46.0,45.0,29.93,WNW,303,0.0,-999.0,95,-99.99,,,-99.99,,2013-03-31 11:03:00,
2013-03-31 07:12:00,46.0,45.0,29.93,WNW,303,0.0,-999.0,95,-99.99,,,-99.99,,2013-03-31 11:12:00,
2013-03-31 07:23:00,46.0,45.0,29.93,WNW,303,0.0,-999.0,95,-99.99,,,-99.99,,2013-03-31 11:23:00,
2013-03-31 07:33:00,46.0,45.0,29.92,WNW,303,0.0,-999.0,95,-99.99,,,-99.99,,2013-03-31 11:33:00,
2013-03-31 07:42:00,46.0,45.0,29.92,WNW,303,0.0,-999.0,95,-99.99,,,-99.99,,2013-03-31 11:42:00,
2013-03-31 07:52:00,46.0,45.0,29.92,WNW,303,0.0,-999.0,95,-99.99,,,-99.99,,2013-03-31 11:52:00,
2013-03-31 08:03:00,46.0,45.0,29.92,WNW,303,0.0,-999.0,96,-99.99,,,-99.99,,2013-03-31 12:03:00,
2013-03-31 08:12:00,46.0,45.0,29.92,WNW,303,0.0,-999.0,96,-99.99,,,-99.99,,2013-03-31 12:12:00,
2013-03-31 08:22:00,46.0,45.0,29.92,WNW,303,0.0,-999.0,95,-99.99,,,-99.99,,2013-03-31 12:22:00,
2013-03-31 08:33:00,45.0,44.0,29.91,WNW,303,0.0,-999.0,95,-99.99,,,-99.99,,2013-03-31 12:33:00,
2013-03-31 08:42:00,45.0,44.0,29.91,WNW,303,0.0,-999.0,95,-99.99,,,-99.99,,2013-03-31 12:42:00,
2013-03-31 08:52:00,45.0,44.0,29.92,WNW,303,0.0,-999.0,96,-99.99,,,-99.99,,2013-03-31 12:52:00,
2013-03-31 09:02:00,45.0,44.0,29.91,WNW,303,0.0,-999.0,96,-99.99,,,-99.99,,2013-03-31 13:02:00,
2013-03-31 09:12:00,45.0,44.0,29.91,WNW,303,0.0,-999.0,96,-99.99,,,-99.99,,2013-03-31 13:12:00,
2013-03-31 09:22:00,45.0,44.0,29.91,WNW,303,0.0,-999.0,96,-99.99,,,-99.99,,2013-03-31 13:22:00,
2013-03-31 09:32:00,46.0,45.0,29.90,WNW,303,0.0,-999.0,96,-99.99,,,-99.99,,2013-03-31 13:32:00,
2013-03-31 09:42:00,46.0,45.0,29.90,WNW,303,0.0,-999.0,96,-99.99,,,-99.99,,2013-03-31 13:42:00,
2013-03-31 09:52:00,46.0,45.0,29.90,WNW,303,0.0,-999.0,96,-99.99,,,-99.99,,2013-03-31 13:52:00,
2013-03-31 10:03:00,46.0,45.0,29.90,WNW,303,0.0,-999.0,96,-99.99,,,-99.99,,2013-03-31 14:03:00,
2013-03-31 10:12:00,46.0,45.0,29.90,WNW,303,0.0,-999.0,96,-99.99,,,-99.99,,2013-03-31 14:12:00,
2013-03-31 10:22:00,46.0,45.0,29.90,WNW,303,0.0,-999.0,96,-99.99,,,-99.99,,2013-03-31 14:22:00,
2013-03-31 10:33:00,47.0,46.0,29.89,WNW,303,0.0,-999.0,96,-99.99,,,-99.99,,2013-03-31 14:33:00,
2013-03-31 10:43:00,47.0,46.0,29.89,WNW,303,0.0,-999.0,96,-99.99,,,-99.99,,2013-03-31 14:43:00,
2013-03-31 10:52:00,47.0,46.0,29.90,WNW,303,0.0,-999.0,96,-99.99,,,-99.99,,2013-03-31 14:52:00,
2013-03-31 11:03:00,47.0,46.0,29.91,WNW,303,0.0,-999.0,96,-99.99,,,-99.99,,2013-03-31 15:03:00,
2013-03-31 11:13:00,47.0,46.0,29.91,WNW,303,0.0,-999.0,96,-99.99,,,-99.99,,2013-03-31 15:13:00,
2013-03-31 11:22:00,47.0,46.0,29.90,SSW,196,0.0,-999.0,96,-99.99,,,-99.99,,2013-03-31 15:22:00,
2013-03-31 11:34:00,48.0,47.0,29.90,SSW,196,0.0,-999.0,96,-99.99,,,-99.99,,2013-03-31 15:34:00,
2013-03-31 11:43:00,48.0,47.0,29.90,SSW,196,0.0,-999.0,96,-99.99,,,-99.99,,2013-03-31 15:43:00,
2013-03-31 11:53:00,48.0,47.0,29.90,SSW,196,0.0,-999.0,97,-99.99,,,-99.99,,2013-03-31 15:53:00,
2013-03-31 12:03:00,48.0,47.0,29.89,SSW,196,0.0,-999.0,96,-99.99,,,-99.99,,2013-03-31 16:03:00,
2013-03-31 12:13:00,48.0,47.0,29.89,SSW,196,0.0,-999.0,96,-99.99,,,-99.99,,2013-03-31 16:13:00,
2013-03-31 12:23:00,48.0,47.0,29.88,SSW,196,0.0,-999.0,97,-99.99,,,-99.99,,2013-03-31 16:23:00,
2013-03-31 12:33:00,49.0,48.0,29.88,SSW,196,0.0,-999.0,97,-99.99,,,-99.99,,2013-03-31 16:33:00,
2013-03-31 12:43:00,49.0,48.0,29.88,SSW,196,0.0,-999.0,97,-99.99,,,-99.99,,2013-03-31 16:43:00,
2013-03-31 12:53:00,49.0,48.0,29.88,South,189,0.0,-999.0,97,-99.99,,,-99.99,,2013-03-31 16:53:00,
2013-03-31 13:03:00,49.0,48.0,29.88,South,189,0.0,-999.0,97,-99.99,,,-99.99,,2013-03-31 17:03:00,
2013-03-31 13:13:00,49.0,48.0,29.88,South,189,0.0,-999.0,97,-99.99,,,-99.99,,2013-03-31 17:13:00,
2013-03-31 13:23:00,49.0,48.0,29.87,South,189,0.0,-999.0,96,-99.99,,,-99.99,,2013-03-31 17:23:00,
2013-03-31 13:32:00,49.0,48.0,29.87,South,189,0.0,-999.0,97,-99.99,,,-99.99,,2013-03-31 17:32:00,
2013-03-31 13:43:00,49.0,48.0,29.87,South,189,0.0,-999.0,97,-99.99,,,-99.99,,2013-03-31 17:43:00,
2013-03-31 13:52:00,49.0,48.0,29.87,South,189,0.0,-999.0,97,-99.99,,,-99.99,,2013-03-31 17:52:00,
2013-03-31 14:03:00,50.0,49.0,29.86,SSW,193,0.0,-999.0,97,-99.99,,,-99.99,,2013-03-31 18:03:00,
2013-03-31 14:13:00,50.0,49.0,29.86,SSW,193,0.0,-999.0,97,-99.99,,,-99.99,,2013-03-31 18:13:00,
2013-03-31 14:22:00,51.0,50.0,29.86,SSW,193,0.0,-999.0,97,-99.99,,,-99.99,,2013-03-31 18:22:00,
2013-03-31 14:33:00,51.0,50.0,29.85,SSW,193,0.0,-999.0,97,-99.99,,,-99.99,,2013-03-31 18:33:00,
2013-03-31 14:42:00,51.0,50.0,29.85,SSW,193,0.0,-999.0,97,-99.99,,,-99.99,,2013-03-31 18:42:00,
2013-03-31 14:52:00,52.0,51.0,29.85,SSW,193,0.0,-999.0,96,-99.99,,,-99.99,,2013-03-31 18:52:00,
2013-03-31 15:03:00,53.0,52.0,29.86,SSW,193,0.0,-999.0,96,-99.99,,,-99.99,,2013-03-31 19:03:00,
2013-03-31 15:12:00,53.0,52.0,29.86,SSW,193,0.0,-999.0,96,-99.99,,,-99.99,,2013-03-31 19:12:00,
2013-03-31 15:22:00,54.0,52.0,29.85,SSW,193,0.0,-999.0,93,-99.99,,,-99.99,,2013-03-31 19:22:00,
2013-03-31 15:33:00,55.0,52.0,29.85,WNW,302,0.0,-999.0,91,-99.99,,,-99.99,,2013-03-31 19:33:00,
2013-03-31 15:43:00,55.0,52.0,29.85,WNW,302,0.0,-999.0,91,-99.99,,,-99.99,,2013-03-31 19:43:00,
2013-03-31 15:53:00,56.0,53.0,29.85,NW,308,0.0,-999.0,90,-99.99,,,-99.99,,2013-03-31 19:53:00,
2013-03-31 16:03:00,56.0,53.0,29.85,NW,309,0.0,-999.0,89,-99.99,,,-99.99,,2013-03-31 20:03:00,
2013-03-31 16:13:00,56.0,53.0,29.85,NW,309,0.0,-999.0,89,-99.99,,,-99.99,,2013-03-31 20:13:00,
2013-03-31 16:23:00,57.0,53.0,29.85,NW,309,0.0,-999.0,88,-99.99,,,-99.99,,2013-03-31 20:23:00,
2013-03-31 16:34:00,58.0,54.0,29.83,NW,319,1.0,-999.0,86,-99.99,,,-99.99,,2013-03-31 20:34:00,
2013-03-31 16:43:00,58.0,54.0,29.83,NW,319,1.0,-999.0,86,-99.99,,,-99.99,,2013-03-31 20:43:00,
2013-03-31 16:52:00,58.0,54.0,29.83,NW,319,0.0,-999.0,86,-99.99,,,-99.99,,2013-03-31 20:52:00,
2013-03-31 17:03:00,59.0,54.0,29.83,NW,319,0.0,-999.0,84,-99.99,,,-99.99,,2013-03-31 21:03:00,
2013-03-31 17:13:00,59.0,54.0,29.83,NW,319,0.0,-999.0,84,-99.99,,,-99.99,,2013-03-31 21:13:00,
2013-03-31 17:22:00,60.0,54.0,29.83,NW,319,0.0,-999.0,82,-99.99,,,-99.99,,2013-03-31 21:22:00,
2013-03-31 17:34:00,60.0,53.0,29.82,NW,321,0.0,-999.0,78,-99.99,,,-99.99,,2013-03-31 21:34:00,
2013-03-31 17:43:00,60.0,53.0,29.82,NW,321,0.0,-999.0,78,-99.99,,,-99.99,,2013-03-31 21:43:00,
2013-03-31 17:53:00,60.0,53.0,29.81,NW,326,0.0,-999.0,79,-99.99,,,-99.99,,2013-03-31 21:53:00,
2013-03-31 18:04:00,59.0,51.0,29.82,NNE,19,0.0,-999.0,74,-99.99,,,-99.99,,2013-03-31 22:04:00,
2013-03-31 18:13:00,59.0,51.0,29.82,NNE,19,0.0,-999.0,74,-99.99,,,-99.99,,2013-03-31 22:13:00,
2013-03-31 18:23:00,59.0,49.0,29.82,NW,304,1.0,-999.0,69,-99.99,,,-99.99,,2013-03-31 22:23:00,
2013-03-31 18:33:00,58.0,48.0,29.82,NNW,329,0.0,-999.0,69,-99.99,,,-99.99,,2013-03-31 22:33:00,
2013-03-31 18:43:00,58.0,48.0,29.82,NNW,329,0.0,-999.0,69,-99.99,,,-99.99,,2013-03-31 22:43:00,
2013-03-31 18:53:00,58.0,46.0,29.83,NW,305,1.0,-999.0,65,-99.99,,,-99.99,,2013-03-31 22:53:00,
2013-03-31 19:03:00,57.0,48.0,29.84,NNW,336,4.0,-999.0,73,-99.99,,,-99.99,,2013-03-31 23:03:00,
2013-03-31 19:13:00,57.0,48.0,29.84,NNW,336,4.0,-999.0,73,-99.99,,,-99.99,,2013-03-31 23:13:00,
2013-03-31 19:22:00,55.0,49.0,29.84,NW,304,1.0,-999.0,81,-99.99,,,-99.99,,2013-03-31 23:22:00,
2013-03-31 19:33:00,54.0,50.0,29.85,NW,311,0.0,-999.0,85,-99.99,,,-99.99,,2013-03-31 23:33:00,
2013-03-31 19:43:00,54.0,50.0,29.85,NW,311,0.0,-999.0,85,-99.99,,,-99.99,,2013-03-31 23:43:00,
2013-03-31 19:53:00,53.0,49.0,29.83,NW,316,1.0,-999.0,87,-99.99,,,-99.99,,2013-03-31 23:53:00,
2013-03-31 20:03:00,52.0,49.0,29.83,NW,316,0.0,-999.0,90,-99.99,,,-99.99,,2013-04-01 00:03:00,
2013-03-31 20:13:00,52.0,49.0,29.83,NW,316,0.0,-999.0,90,-99.99,,,-99.99,,2013-04-01 00:13:00,
2013-03-31 20:22:00,52.0,49.0,29.83,WNW,290,0.0,-999.0,90,-99.99,,,-99.99,,2013-04-01 00:22:00,
2013-03-31 20:32:00,51.0,48.0,29.83,WNW,290,0.0,-999.0,91,-99.99,,,-99.99,,2013-04-01 00:32:00,
2013-03-31 20:43:00,51.0,48.0,29.83,WNW,290,0.0,-999.0,91,-99.99,,,-99.99,,2013-04-01 00:43:00,
2013-03-31 20:52:00,51.0,48.0,29.83,WNW,290,0.0,-999.0,89,-99.99,,,-99.99,,2013-04-01 00:52:00,
2013-03-31 21:03:00,51.0,48.0,29.83,WNW,290,0.0,-999.0,88,-99.99,,,-99.99,,2013-04-01 01:03:00,
2013-03-31 21:13:00,51.0,48.0,29.83,WNW,290,0.0,-999.0,88,-99.99,,,-99.99,,2013-04-01 01:13:00,
2013-03-31 21:23:00,51.0,48.0,29.84,NW,324,0.0,-999.0,88,-99.99,,,-99.99,,2013-04-01 01:23:00,
2013-03-31 21:33:00,52.0,47.0,29.84,NW,315,1.0,-999.0,84,-99.99,,,-99.99,,2013-04-01 01:33:00,
2013-03-31 21:43:00,52.0,47.0,29.84,NW,315,1.0,-999.0,84,-99.99,,,-99.99,,2013-04-01 01:43:00,
2013-03-31 21:52:00,53.0,48.0,29.85,NW,315,1.0,-999.0,82,-99.99,,,-99.99,,2013-04-01 01:52:00,
2013-03-31 22:03:00,53.0,48.0,29.85,NW,315,0.0,-999.0,84,-99.99,,,-99.99,,2013-04-01 02:03:00,
2013-03-31 22:13:00,53.0,48.0,29.85,NW,315,0.0,-999.0,84,-99.99,,,-99.99,,2013-04-01 02:13:00,
2013-03-31 22:23:00,53.0,47.0,29.85,WNW,297,0.0,-999.0,81,-99.99,,,-99.99,,2013-04-01 02:23:00,
2013-03-31 22:33:00,53.0,48.0,29.85,WNW,297,0.0,-999.0,83,-99.99,,,-99.99,,2013-04-01 02:33:00,
2013-03-31 22:42:00,53.0,48.0,29.85,WNW,297,0.0,-999.0,83,-99.99,,,-99.99,,2013-04-01 02:42:00,
2013-03-31 22:52:00,54.0,48.0,29.86,NW,306,1.0,-999.0,81,-99.99,,,-99.99,,2013-04-01 02:52:00,
2013-03-31 23:03:00,53.0,49.0,29.87,NW,313,1.0,-999.0,85,-99.99,,,-99.99,,2013-04-01 03:03:00,
2013-03-31 23:12:00,53.0,49.0,29.87,NW,313,1.0,-999.0,85,-99.99,,,-99.99,,2013-04-01 03:12:00,
2013-03-31 23:23:00,52.0,49.0,29.87,NW,317,1.0,-999.0,89,-99.99,,,-99.99,,2013-04-01 03:23:00,
2013-03-31 23:34:00,52.0,49.0,29.87,NW,321,1.0,-999.0,89,-99.99,,,-99.99,,2013-04-01 03:34:00,
2013-03-31 23:43:00,52.0,49.0,29.87,NW,321,1.0,-999.0,89,-99.99,,,-99.99,,2013-04-01 03:43:00,
2013-03-31 23:53:00,52.0,49.0,29.87,NW,312,1.0,-999.0,89,-99.99,,,-99.99,,2013-04-01 03:53:00,